Location: A O Calhoun Middle School
(33.2198°N, 97.1397°W)
Time: 07:35:43
(UTC+00:00)

Cosmos 1805 Rocket - Pass Details

Date: 08 December 2021
Orbit: 606 x 629 km, 82.5° (Epoch: 25 January)

Event Time Altitude Azimuth Distance (km) Brightness Sun altitude
Rises 12:34:40 0° 195° (SSW) 2,880 7.1 -9.5°
Reaches altitude 10° 12:36:55 10° 200° (SSW) 1,975 6.2 -9.0°
Maximum altitude 12:41:12 55° 278° (W) 744 3.6 -8.2°
Drops below altitude 10° 12:45:30 10° 356° (N) 1,974 5.9 -7.4°
Sets 12:47:45 0° 1° (N) 2,879 6.8 -6.9°
